User: anonymous   Login
Location: Unspecified
(0.0000°N, 0.0000°E)
Time: 12:54:56
(UTC+00:00)
Language:

USA 274 - Orbit

View from above orbital plane
View from above orbital plane
View from above satellite
View from above satellite

Ground track
Ground track

The orbit data is extracted from the following two-line orbital elements,

1 42058U 17011A   21014.26622395 0.00000000  00000-0  00000-0 0    05
2 42058  63.4449 151.7156 0008985  83.7282 276.2718 13.40818988    00
Epoch (UTC): 14 January 2021 06:23:21
Eccentricity: 0.0008985
inclination: 63.4449°
perigee height: 1099 km
apogee height: 1113 km
right ascension of ascending node: 151.7156°
argument of perigee: 83.7282°
revolutions per day: 13.40818988
mean anomaly at epoch: 276.2718°
orbit number at epoch: 0

The dashed part of the orbit path shows where the satellite is in the earth's shadow,  

DLR